Location: Arleux
(50.3632°N, 2.8721°E)
Time: 02:54:26
(UTC+00:00)

Daily predictions for brighter satellites

Satellite Brightness Start Highest point End
(mag) Time Altitude Azimuth Time Altitude Azimuth Time Altitude Azimuth
Cosmos 2263 Rocket 3.7 03:42:26 32° ENE 03:42:26 32° ENE 03:45:54 10° NE
Cosmos 2297 Rocket 4.4 04:10:26 14° N 04:10:26 14° N 04:11:20 10° NNE
Cosmos 2227 Rocket 4.4 04:15:38 14° N 04:15:38 14° N 04:16:42 10° NNE
Cosmos 44 4.5 04:23:58 36° SE 04:24:11 36° ESE 04:28:20 10° NE
ATLAS 5 CENTAUR R/B 3.8 04:33:48 20° NNE 04:33:48 20° NNE 04:36:19 10° NE
Okean O Rocket 4.2 04:29:53 10° NE 04:33:08 20° E 04:36:24 10° SE
ALOS 4.1 04:30:52 10° NNE 04:35:01 30° E 04:39:08 10° SSE
ATLAS CENTAUR R/B 2.7 04:42:35 35° NE 04:42:35 35° NE 04:46:05 10° ESE
Cosmos 2026 Rocket 3.8 04:40:41 44° NNW 04:42:50 83° W 04:49:07 10° S
Cosmos 2082 Rocket 4.4 04:40:01 12° N 04:42:51 16° NNE 04:46:18 10° ENE
USA 234 3.9 04:38:33 10° ENE 04:44:56 53° SE 04:49:29 20° SSW
Meteor 1-18 Rocket 4.1 04:45:48 70° SW 04:45:48 70° SW 04:50:53 10° S
SKYMED 2 3.8 04:50:32 10° SSE 04:54:14 64° SSE 04:54:14 64° SSE
Timation 1 Rocket 4.2 04:54:39 55° SW 04:55:58 77° WNW 05:01:59 10° NNE
Cosmos 2279 Rocket 4.2 04:52:19 10° S 04:58:27 70° E 05:04:41 10° NNE
Cosmos 1515 4.1 05:04:31 57° SSE 05:04:31 57° SSE 05:07:37 10° SSE
Okean 3 3.3 05:06:40 75° N 05:07:01 86° E 05:11:15 10° S
GEOS 3 Rocket 3.5 05:02:59 10° SE 05:08:05 73° SW 05:09:07 56° WNW
Meteor 1-25 Rocket 4.3 05:09:32 49° WSW 05:10:24 54° WNW 05:16:03 10° N
Cosmos 1346 Rocket 4.4 05:15:14 23° N 05:15:14 23° N 05:16:48 10° N
Cosmos 1634 Rocket 3.9 05:06:53 10° SSW 05:13:00 63° WNW 05:19:09 10° N
USA 116 4.3 05:09:34 10° SSE 05:14:22 87° ENE 05:18:26 17° NNW
BREEZE-M DEB (TANK) 4.1 05:16:42 13° SSE 05:16:42 13° SSE 05:17:09 10° SSE
Cosmos 1452 Rocket 3.7 05:16:39 49° WNW 05:16:42 49° WNW 05:21:52 10° NNE
CZ-2C R/B 4.5 05:14:28 10° N 05:14:55 12° N 05:14:55 12° N
Meteor 2-4 Rocket 3.5 05:16:04 18° NNW 05:20:11 80° W 05:25:33 10° S
SL-24 R/B 4.4 05:19:52 10° SSE 05:24:03 64° ENE 05:27:46 14° N
Cosmos 2263 Rocket 2.5 05:24:11 41° WNW 05:24:39 42° NW 05:29:57 10° NNE
MOS 1-B 4.2 05:24:08 10° NNE 05:29:57 84° WNW 05:35:44 10° SSW
Helios 1A Rocket 3.4 05:27:35 10° NNE 05:31:36 60° ESE 05:35:34 10° S
Meteor 2-13 Rocket 4.3 05:25:58 10° NNW 05:32:06 70° W 05:38:12 10° S
Meteor 1-14 Rocket 4.4 05:26:43 10° SSW 05:32:33 53° WNW 05:38:26 10° N
NOSS 3-2 (A) 4.2 05:30:14 10° SSW 05:35:51 53° ESE 05:42:13 10° NE
FENGYUN 3A 3.6 05:31:07 10° NNE 05:36:32 86° WNW 05:41:55 10° SSW
NOAA 6 4.2 05:31:56 10° NNE 05:37:05 74° ESE 05:42:13 10° S
METEOR-M 4.0 05:33:51 10° NNE 05:39:14 81° WNW 05:44:35 10° SSW
Cosmos 1655 Rocket 3.9 05:33:44 10° NNW 05:39:54 65° W 05:46:02 10° S
Cosmos 1833 Rocket 3.9 05:35:37 11° NNW 05:40:35 38° NE 05:45:50 10° ESE
COSMO-SKYMED 1 3.3 05:39:10 10° SSW 05:42:47 32° WSW 05:42:47 32° WSW
CZ-4B DEB 4.1 05:38:49 10° NNE 05:44:21 72° WNW 05:49:52 10° SSW
Cosmos 1666 3.9 05:43:33 10° SSE 05:47:10 44° E 05:50:47 10° NNE
CENTAUR R/B 4.3 05:42:00 10° S 05:47:21 34° ESE 05:53:28 10° NE
USA 238 DEB 4.0 05:41:38 10° SSW 05:48:16 71° SE 05:55:11 10° NE
Cosmos 405 3.0 05:47:31 41° NW 05:48:22 52° W 05:51:48 10° S
USA 238 4.0 05:41:45 10° SSW 05:48:23 70° SE 05:55:17 10° NE
Cosmos 2297 Rocket 4.3 05:52:15 10° NNW 05:52:50 10° NNW 05:53:50 10° N
Cosmos 1733 Rocket 2.9 05:49:14 10° SSW 05:53:31 62° WNW 05:57:51 10° N
Cosmos 1331 Rocket 3.9 05:50:08 10° SW 05:55:15 65° WNW 06:00:28 10° NNE
Cosmos 1844 Rocket 2.6 05:49:41 10° SSW 05:55:17 87° WNW 06:00:54 10° NNE
Cosmos 332 Rocket 3.7 05:52:09 10° SSW 05:57:02 67° WNW 06:01:56 10° NNE
Cosmos 1484 Rocket 4.3 05:54:30 10° N 05:56:10 20° NNW 05:56:10 20° NNW
Cosmos 2227 Rocket 4.2 05:57:27 10° NNW 05:58:13 10° NNW 05:59:08 10° N
SMAP 4.0 05:55:21 10° NNE 05:59:55 51° E 06:04:27 10° S
ADEOS Rocket 3.2 05:55:08 10° SSE 06:01:49 80° ENE 06:07:50 10° NNW
CZ-4B R/B 3.2 05:59:35 10° NNE 06:05:12 73° WNW 06:10:51 10° SSW
Cosmos 44 3.5 06:02:29 19° WSW 06:05:22 42° NW 06:09:37 10° NNE
Cosmos 1844 3.8 05:59:36 10° SSW 06:05:25 89° ESE 06:11:13 10° NNE
COSMOS 2406 3.2 06:00:13 13° NNW 06:05:27 90° E 06:11:08 10° SSE
SL-23 DEB 3.3 06:03:51 25° WSW 06:05:32 90° SSE 06:09:08 10° ENE
Radarsat Rocket 4.4 06:00:16 10° NNE 06:06:35 81° ESE 06:13:42 10° SSW
Okean O Rocket 1.7 06:05:31 10° N 06:09:49 54° WNW 06:14:07 10° SSW
Cosmos 1110 Rocket 4.2 06:07:22 10° SW 06:12:19 45° WNW 06:17:18 10° NNE
ALOS 2.7 06:08:11 10° N 06:12:32 38° WNW 06:16:49 10° SW
Cosmos 2266 Rocket 4.1 06:06:53 10° NNW 06:12:55 54° W 06:18:49 10° SSW
Cosmos 371 Rocket 3.7 06:12:13 10° SW 06:16:47 39° WNW 06:21:23 10° NNE
ATLAS 5 CENTAUR R/B 3.7 06:15:21 13° NW 06:18:30 21° N 06:22:42 10° ENE
SJ-7 4.4 06:15:10 10° N 06:19:06 54° WNW 06:22:59 10° SSW
Cosmos 1674 Rocket 4.2 06:17:04 11° NNW 06:20:43 33° W 06:24:35 10° SSW
H-2A R/B 2.7 06:16:58 10° NNE 06:20:44 87° ESE 06:24:32 10° SSW
ATLAS CENTAUR R/B 1.9 06:18:48 19° WNW 06:21:19 38° WSW 06:24:57 10° S
Meteor 2-19 Rocket 4.4 06:15:35 10° NNW 06:21:45 76° W 06:27:53 10° S
CZ-4 R/B 3.9 06:19:53 10° NE 06:23:08 24° E 06:26:23 10° SSE
Cosmos 1975 Rocket 3.2 06:19:07 10° N 06:23:36 78° E 06:28:05 10° SSE
IRIDIUM 104 4.4 06:20:34 10° N 06:25:42 58° W 06:30:49 10° SSW
Cosmos 1743 3.6 06:22:44 10° S 06:26:27 53° E 06:30:12 10° NNE
USA 234 3.3 06:21:38 10° ENE 06:28:08 71° NNW 06:34:38 10° WSW
Cosmos 2082 Rocket 2.8 06:22:43 10° NNW 06:28:16 54° NE 06:33:46 10° SE
Cosmos 1486 Rocket 4.3 06:24:39 10° NNW 06:29:44 47° WSW 06:34:45 10° S
Cosmos 1782 Rocket 3.8 06:25:20 10° S 06:29:45 74° E 06:34:09 10° NNE
Cosmos 1536 3.3 06:30:22 10° SW 06:34:11 39° WNW 06:38:01 10° N
Meteor 1-23 Rocket 4.5 06:30:09 10° NNW 06:35:44 50° W 06:41:14 10° SSW
ATLAS 3B R/B 3.5 06:29:15 10° SSW 06:35:46 55° ESE 06:42:15 10° NE
Okean-O 3.2 06:31:57 10° NNE 06:36:23 62° ESE 06:40:46 10° S
Cosmos 1378 Rocket 4.3 06:33:01 10° NNW 06:36:58 32° W 06:40:55 10° SSW
Feng Yun 1-1 Rocket 4.4 06:32:08 10° NNE 06:37:47 89° ESE 06:43:34 10° SSW
YAOGAN 6 3.7 06:34:18 10° NNE 06:37:56 49° E 06:41:32 10° S
NOSS 3-2 (C) 3.6 06:33:09 10° SW 06:39:02 83° SE 06:45:47 10° NE
Cosmos 1500 4.4 06:36:04 10° WSW 06:39:06 22° WNW 06:42:07 10° NNW
Envisat 3.5 06:34:08 10° NNE 06:39:12 65° ESE 06:44:15 10° S
BREEZE-M DEB (TANK) 4.4 06:18:54 11° W 06:40:22 78° SSW 06:45:05 10° ESE
USA 81 4.5 06:41:03 10° NNW 06:45:59 42° W 06:50:54 10° SSW
Okean 2 Rocket 4.1 06:41:53 10° S 06:46:08 50° E 06:50:26 10° NNE
Cosmos 1842 3.8 06:45:44 10° N 06:49:39 61° ENE 06:53:34 10° SSE
Sich 1 Rocket 3.6 06:47:48 10° S 06:52:19 86° W 06:56:48 10° N
Iridium 4 Rocket 3.9 06:49:57 10° N 06:54:17 53° E 06:58:22 10° SSE
Meteor 1-11 Rocket 4.4 06:49:42 10° SW 06:55:01 35° WNW 07:00:27 10° N
Meteor 1-4 Rocket 2.8 06:55:22 10° N 06:59:06 76° ENE 07:02:45 10° SSE
Cosmos 2285 Rocket 4.1 06:53:23 10° NNW 06:59:45 85° ENE 07:06:04 10° SSE
Cosmos 405 Rocket 4.3 06:56:16 10° SSE 06:59:48 38° E 07:03:18 10° NNE
Cosmos 44 Rocket 3.4 06:57:22 10° WSW 07:02:09 56° NW 07:06:51 10° NE
S3M 4.4 06:59:16 10° S 07:05:36 73° E 07:11:54 10° NNE
